Location: R�serve Fauniques des Laurentides
(47.3100°N, 71.1900°W)
Time: 07:57:38
(UTC-04:00)

Amateur Radio Satellites - All Passes

Search period start: 20 September 2014 07:27
Search period end: 21 September 2014 07:27
Location: R�serve Fauniques des Laurentides, 47.3100°N, 71.1900°W

Satellite Date Start Highest point End Downlink Frequencies (MHz)
Time Altitude Azimuth
Hamsat 20 Sep 07:31:15 07:35:09 36° 291° (WNW) 07:39:00 145.90 MHz
STRAND 1 20 Sep 07:37:22 07:41:43 28° 266° (W) 07:46:06 ?
RS-15 20 Sep 07:42:32 07:52:26 37° 339° (NNW) 08:02:26 29.354 - 29.394 USB, Beacon 29.352 USB
UOSAT-12 20 Sep 08:06:56 08:11:38 57° 47° (NE) 08:16:15 437.025 FM, 437.400 FM
ISS 20 Sep 08:07:07 08:10:28 80° 207° (SSW) 08:13:47 145.800 FM
SO-50 20 Sep 08:13:21 08:16:43 19° 248° (WSW) 08:20:06 436.795 FM
AO-7 20 Sep 08:15:15 08:20:03 17° 321° (NW) 08:24:50 29.400 - 29.500 MHz
MaSat-1 20 Sep 08:28:33 08:33:32 67° 116° (ESE) 08:38:23 437.345 MHz
HO-68 20 Sep 08:32:51 08:37:58 20° 89° (E) 08:43:04 435.675 MHz FM
SO-67 20 Sep 08:39:05 08:42:11 31° 290° (WNW) 08:45:16 435.3500 MHz FM
JAS-2 20 Sep 09:14:31 09:16:17 11° 309° (NW) 09:18:05 435.800 - 435.900 CW/SSB, 435.910 FM
UKube-1 20 Sep 09:24:05 09:27:07 18° 92° (E) 09:30:08 145.840 MHz, 145.915 MHz
ISS 20 Sep 09:44:45 09:46:44 15° 224° (SW) 09:48:43 145.800 FM
UOSAT-12 20 Sep 09:47:45 09:51:27 23° 247° (WSW) 09:55:06 437.025 FM, 437.400 FM
RS-15 20 Sep 09:58:58 10:08:38 34° 13° (NNE) 10:18:30 29.354 - 29.394 USB, Beacon 29.352 USB
MaSat-1 20 Sep 10:06:42 10:10:42 24° 314° (NW) 10:14:34 437.345 MHz
HO-68 20 Sep 10:19:19 10:26:32 86° 289° (WNW) 10:33:44 435.675 MHz FM
FUNcube-1 20 Sep 10:33:35 10:37:45 32° 95° (E) 10:41:52 145.950 - 145.970 MHz USB
Oscar 11 20 Sep 10:41:51 10:46:14 86° 104° (ESE) 10:50:34 145.825 FM, Beacon 2401.500 USB
UKube-1 20 Sep 10:59:23 11:03:37 51° 290° (WNW) 11:07:50 145.840 MHz, 145.915 MHz
Sapphire 20 Sep 11:12:17 11:15:53 18° 106° (ESE) 11:19:30 437.095 MHz 1200 baud AX-25 AFSK
PCSat 20 Sep 11:37:49 11:42:33 32° 111° (ESE) 11:47:18 145.825 MHz
Oscar 16 20 Sep 11:48:01 11:51:11 17° 56° (ENE) 11:54:22 437.025 USB, Beacon 2401.1428
HO-68 20 Sep 12:08:12 12:13:19 22° 309° (NW) 12:18:27 435.675 MHz FM
FUNcube-1 20 Sep 12:10:00 12:14:06 32° 293° (WNW) 12:18:10 145.950 - 145.970 MHz USB
RS-15 20 Sep 12:12:34 12:23:34 65° 44° (NE) 12:34:56 29.354 - 29.394 USB, Beacon 29.352 USB
Oscar 11 20 Sep 12:19:54 12:21:46 13° 302° (WNW) 12:23:38 145.825 FM, Beacon 2401.500 USB
ITAMSAT 1 20 Sep 12:32:45 12:36:07 18° 57° (ENE) 12:39:29 435.822 SSB
Uribyol 2 20 Sep 12:36:22 12:40:02 20° 58° (ENE) 12:43:44 436.500 FM
JAS-1B 20 Sep 12:37:52 12:44:54 34° 62° (ENE) 12:50:57 435.800 - 435.900 CW/SSB
Oscar 19 20 Sep 12:46:02 12:50:57 45° 68° (ENE) 12:55:54 437.125 CW, 437.150 USB
Sapphire 20 Sep 12:53:16 12:58:41 77° 305° (NW) 13:04:09 437.095 MHz 1200 baud AX-25 AFSK
TMSAT-1 20 Sep 13:03:17 13:05:35 13° 53° (NE) 13:07:52 436.925 FM
AO-27 20 Sep 13:06:27 13:11:00 33° 64° (ENE) 13:15:35 436.795 MHz FM
PCSat 20 Sep 13:20:33 13:25:47 48° 311° (NW) 13:31:03 145.825 MHz
Oscar 16 20 Sep 13:24:40 13:29:52 85° 256° (WSW) 13:35:07 437.025 USB, Beacon 2401.1428
AO-Echo 20 Sep 13:31:47 13:36:23 55° 71° (ENE) 13:40:59 ?
AO-7 20 Sep 13:41:44 13:47:13 20° 43° (NE) 13:52:41 29.400 - 29.500 MHz
Gurwin Techsat 1B 20 Sep 14:03:05 14:08:09 48° 68° (ENE) 14:13:15 435.225 FM
ITAMSAT 1 20 Sep 14:09:50 14:15:00 78° 256° (WSW) 14:20:13 435.822 SSB
Uribyol 2 20 Sep 14:13:52 14:19:01 68° 257° (WSW) 14:24:13 436.500 FM
RS-15 20 Sep 14:25:20 14:35:36 46° 249° (WSW) 14:46:17 29.354 - 29.394 USB, Beacon 29.352 USB
Oscar 19 20 Sep 14:26:05 14:30:28 27° 266° (W) 14:34:54 437.125 CW, 437.150 USB
JAS-1B 20 Sep 14:26:56 14:35:17 60° 258° (WSW) 14:42:16 435.800 - 435.900 CW/SSB
Sapphire 20 Sep 14:39:06 14:43:01 20° 327° (NNW) 14:46:57 437.095 MHz 1200 baud AX-25 AFSK
TMSAT-1 20 Sep 14:39:20 14:44:36 72° 73° (ENE) 14:49:54 436.925 FM
Uosat F 20 Sep 14:44:12 14:47:30 18° 58° (ENE) 14:50:48 435.120 FM
AO-27 20 Sep 14:45:39 14:50:27 38° 263° (W) 14:55:17 436.795 MHz FM
PCSat 20 Sep 15:07:35 15:10:35 15° 334° (NNW) 15:13:35 145.825 MHz
Oscar 16 20 Sep 15:07:57 15:10:01 12° 274° (W) 15:12:04 437.025 USB, Beacon 2401.1428
AO-Echo 20 Sep 15:12:13 15:15:32 19° 269° (W) 15:18:51 ?
AO-7 20 Sep 15:30:23 15:38:34 67° 65° (ENE) 15:46:47 29.400 - 29.500 MHz
Gurwin Techsat 1B 20 Sep 15:43:57 15:48:21 26° 267° (W) 15:52:47 435.225 FM
ITAMSAT 1 20 Sep 15:54:08 15:55:22 11° 275° (W) 15:56:37 435.822 SSB
JAS-2 20 Sep 16:00:42 16:03:27 15° 55° (NE) 16:06:14 435.800 - 435.900 CW/SSB, 435.910 FM
Uosat F 20 Sep 16:20:45 16:25:44 73° 257° (WSW) 16:30:46 435.120 FM
TMSAT-1 20 Sep 16:21:40 16:25:05 17° 271° (W) 16:28:31 436.925 FM
JAS-1B 20 Sep 16:24:44 16:26:58 11° 276° (W) 16:29:07 435.800 - 435.900 CW/SSB
MaSat-1 20 Sep 16:42:29 16:46:06 30° 49° (NE) 16:49:15 437.345 MHz
Saudisat 1A 20 Sep 16:43:41 16:47:34 31° 117° (ESE) 16:51:29 436.775 MHz
Hamsat 20 Sep 16:51:54 16:55:35 27° 66° (ENE) 16:59:15 145.90 MHz
OPAL 20 Sep 17:22:25 17:27:26 47° 101° (ESE) 17:32:20 ?
AO-7 20 Sep 17:24:46 17:31:56 32° 265° (W) 17:39:09 29.400 - 29.500 MHz
JAS-2 20 Sep 17:42:37 17:47:50 89° 255° (WSW) 17:53:05 435.800 - 435.900 CW/SSB, 435.910 FM
SO-67 20 Sep 17:44:06 17:45:17 11° 62° (ENE) 17:46:27 435.3500 MHz FM
STRAND 1 20 Sep 18:07:46 18:08:45 11° 85° (E) 18:09:44 ?
Sapphire 20 Sep 18:12:49 18:14:55 12° 20° (NNE) 18:17:01 437.095 MHz 1200 baud AX-25 AFSK
MaSat-1 20 Sep 18:19:30 18:22:41 25° 253° (WSW) 18:25:29 437.345 MHz
Saudisat 1A 20 Sep 18:22:55 18:27:04 39° 316° (NW) 18:31:15 436.775 MHz
Hamsat 20 Sep 18:27:27 18:31:26 34° 264° (W) 18:35:25 145.90 MHz
PCSat 20 Sep 18:39:19 18:42:33 16° 28° (NNE) 18:45:47 145.825 MHz
KITSAT 1 20 Sep 18:58:34 19:06:09 46° 113° (ESE) 19:13:45 435.175 FM
OPAL 20 Sep 19:01:43 19:06:05 28° 300° (WNW) 19:10:23 ?
HO-68 20 Sep 19:05:27 19:10:54 24° 53° (NE) 19:16:21 435.675 MHz FM
SO-67 20 Sep 19:14:26 19:17:51 58° 260° (W) 19:21:17 435.3500 MHz FM
JAS-2 20 Sep 19:32:09 19:33:51 12° 274° (W) 19:35:33 435.800 - 435.900 CW/SSB, 435.910 FM
STRAND 1 20 Sep 19:43:38 19:48:48 77° 104° (ESE) 19:53:56 ?
Sapphire 20 Sep 19:55:06 20:00:04 34° 44° (NE) 20:05:00 437.095 MHz 1200 baud AX-25 AFSK
Saudisat 1A 20 Sep 20:06:03 20:07:51 12° 339° (NNW) 20:09:40 436.775 MHz
Oscar 11 20 Sep 20:06:28 20:08:29 13° 58° (ENE) 20:10:31 145.825 FM, Beacon 2401.500 USB
PCSat 20 Sep 20:21:54 20:27:15 53° 51° (NE) 20:32:32 145.825 MHz
UKube-1 20 Sep 20:22:33 20:26:04 25° 64° (ENE) 20:29:36 145.840 MHz, 145.915 MHz
HO-68 20 Sep 20:50:41 20:57:50 84° 253° (WSW) 21:05:03 435.675 MHz FM
KITSAT 1 20 Sep 20:53:38 21:01:30 53° 315° (NW) 21:09:25 435.175 FM
STRAND 1 20 Sep 21:24:02 21:27:24 18° 302° (WNW) 21:30:46 ?
FUNcube-1 20 Sep 21:32:56 21:37:01 37° 68° (ENE) 21:41:13 145.950 - 145.970 MHz USB
Sapphire 20 Sep 21:38:27 21:43:40 48° 244° (WSW) 21:48:51 437.095 MHz 1200 baud AX-25 AFSK
Oscar 11 20 Sep 21:39:40 21:44:03 83° 257° (WSW) 21:48:27 145.825 FM, Beacon 2401.500 USB
UKube-1 20 Sep 21:58:04 22:02:06 38° 262° (W) 22:06:10 145.840 MHz, 145.915 MHz
PCSat 20 Sep 22:05:49 22:10:23 28° 250° (WSW) 22:14:55 145.825 MHz
SO-50 20 Sep 22:29:51 22:34:19 70° 124° (SE) 22:38:56 436.795 FM
HO-68 20 Sep 22:42:09 22:46:35 17° 273° (W) 22:51:03 435.675 MHz FM
KITSAT 1 20 Sep 22:52:42 22:58:57 24° 342° (NNW) 23:05:12 435.175 FM
FUNcube-1 20 Sep 23:09:48 23:13:31 26° 267° (W) 23:17:19 145.950 - 145.970 MHz USB
Saudisat 1A 20 Sep 23:28:11 23:30:59 16° 28° (NNE) 23:33:47 436.775 MHz
UOSAT-12 21 Sep 00:00:43 00:05:13 52° 121° (ESE) 00:09:48 437.025 FM, 437.400 FM
SO-50 21 Sep 00:11:38 00:15:21 24° 326° (NW) 00:19:08 436.795 FM
KITSAT 1 21 Sep 00:51:39 00:57:37 22° 12° (NNE) 01:03:34 435.175 FM
Oscar 19 21 Sep 00:56:32 00:58:26 12° 86° (E) 01:00:20 437.125 CW, 437.150 USB
Saudisat 1A 21 Sep 01:06:59 01:11:24 67° 50° (NE) 01:15:47 436.775 MHz
Oscar 16 21 Sep 01:33:42 01:38:04 27° 94° (E) 01:42:24 437.025 USB, Beacon 2401.1428
AO-Echo 21 Sep 01:36:54 01:39:23 14° 89° (E) 01:41:54 ?
UOSAT-12 21 Sep 01:41:29 01:45:37 30° 322° (NW) 01:49:48 437.025 FM, 437.400 FM
SO-50 21 Sep 01:56:56 01:57:38 10° 350° (N) 01:58:20 436.795 FM
Oscar 10/S400 21 Sep 02:03:19 03:05:58 29° 232° (SW) 06:40:28 145.825 - 145.975 CW/USB, Beacon 145.810 USB
JAS-1B 21 Sep 02:09:16 02:14:12 28° 94° (E) 02:19:03 435.800 - 435.900 CW/SSB
Gurwin Techsat 1B 21 Sep 02:17:24 02:20:20 15° 88° (E) 02:23:16 435.225 FM
ITAMSAT 1 21 Sep 02:19:50 02:24:24 30° 95° (E) 02:28:56 435.822 SSB
Uribyol 2 21 Sep 02:23:34 02:28:19 34° 96° (E) 02:33:02 436.500 FM
ISS 21 Sep 02:27:50 02:30:52 33° 143° (SE) 02:33:54 145.800 FM
Oscar 19 21 Sep 02:33:22 02:38:35 84° 105° (ESE) 02:43:44 437.125 CW, 437.150 USB
RS-15 21 Sep 02:43:25 02:51:27 24° 101° (ESE) 02:59:25 29.354 - 29.394 USB, Beacon 29.352 USB
Saudisat 1A 21 Sep 02:47:35 02:50:31 17° 248° (WSW) 02:53:25 436.775 MHz
KITSAT 1 21 Sep 02:47:45 02:55:25 44° 40° (NE) 03:03:02 435.175 FM
TMSAT-1 21 Sep 02:52:38 02:56:46 23° 92° (E) 03:00:53 436.925 FM
AO-27 21 Sep 02:54:53 03:00:03 60° 101° (ESE) 03:05:13 436.795 MHz FM
OPAL 21 Sep 03:03:27 03:07:12 21° 56° (NE) 03:10:58 ?
Oscar 16 21 Sep 03:12:41 03:17:37 45° 292° (WNW) 03:22:30 437.025 USB, Beacon 2401.1428
AO-Echo 21 Sep 03:13:53 03:18:44 80° 286° (WNW) 03:23:42 ?
UOSAT-12 21 Sep 03:25:40 03:27:18 12° 345° (NNW) 03:28:56 437.025 FM, 437.400 FM
AO-7 21 Sep 03:30:09 03:34:58 16° 86° (E) 03:39:46 29.400 - 29.500 MHz
SO-50 21 Sep 03:38:50 03:40:24 11° 15° (NNE) 03:41:58 436.795 FM
Gurwin Techsat 1B 21 Sep 03:55:39 04:01:00 83° 286° (WNW) 04:06:18 435.225 FM
ITAMSAT 1 21 Sep 03:59:07 04:04:01 42° 293° (WNW) 04:08:53 435.822 SSB
JAS-1B 21 Sep 03:59:42 04:05:11 44° 294° (WNW) 04:10:32 435.800 - 435.900 CW/SSB
Uribyol 2 21 Sep 04:03:02 04:07:49 37° 294° (WNW) 04:12:35 436.500 FM
ISS 21 Sep 04:04:11 04:07:28 58° 342° (NNW) 04:10:46 145.800 FM
Oscar 19 21 Sep 04:14:07 04:17:16 17° 303° (WNW) 04:20:24 437.125 CW, 437.150 USB
Uosat F 21 Sep 04:25:39 04:29:54 27° 94° (E) 04:34:09 435.120 FM
TMSAT-1 21 Sep 04:31:51 04:37:03 56° 290° (WNW) 04:42:13 436.925 FM
AO-27 21 Sep 04:35:12 04:39:10 23° 300° (WNW) 04:43:09 436.795 MHz FM
OPAL 21 Sep 04:40:23 04:45:34 71° 255° (WSW) 04:50:48 ?
KITSAT 1 21 Sep 04:43:16 04:51:11 60° 243° (WSW) 04:59:03 435.175 FM
JAS-2 21 Sep 04:50:28 04:51:12 10° 85° (E) 04:51:56 435.800 - 435.900 CW/SSB, 435.910 FM
RS-15 21 Sep 04:51:08 05:02:10 85° 124° (SE) 05:13:09 29.354 - 29.394 USB, Beacon 29.352 USB
AO-Echo 21 Sep 04:54:46 04:56:46 13° 304° (NW) 04:58:48 ?
UOSAT-12 21 Sep 05:08:51 05:09:38 10° 10° (N) 05:10:26 437.025 FM, 437.400 FM
SO-50 21 Sep 05:18:18 05:22:30 29° 38° (NE) 05:26:44 436.795 FM
AO-7 21 Sep 05:20:51 05:29:11 74° 107° (ESE) 05:37:28 29.400 - 29.500 MHz
STRAND 1 21 Sep 05:25:12 05:29:09 23° 61° (ENE) 05:33:08 ?
Gurwin Techsat 1B 21 Sep 05:37:18 05:40:10 15° 305° (NW) 05:43:02 435.225 FM
ISS 21 Sep 05:41:25 05:44:34 37° 2° (N) 05:47:42 145.800 FM
Uosat F 21 Sep 06:04:06 06:08:51 43° 292° (WNW) 06:13:35 435.120 FM
Hamsat 21 Sep 06:09:50 06:13:43 33° 96° (E) 06:17:32 145.90 MHz
TMSAT-1 21 Sep 06:15:39 06:15:51 10° 310° (NW) 06:16:03 436.925 FM
JAS-2 21 Sep 06:31:16 06:37:13 63° 102° (ESE) 06:43:57 435.800 - 435.900 CW/SSB, 435.910 FM
KITSAT 1 21 Sep 06:42:02 06:44:53 12° 263° (W) 06:47:45 435.175 FM
UOSAT-12 21 Sep 06:47:42 06:51:32 23° 34° (NE) 06:55:19 437.025 FM, 437.400 FM
SO-50 21 Sep 06:58:39 07:03:21 55° 238° (WSW) 07:08:06 436.795 FM
STRAND 1 21 Sep 07:03:01 07:08:00 55° 259° (W) 07:13:01 ?
RS-15 21 Sep 07:05:37 07:15:48 41° 333° (NNW) 07:26:04 29.354 - 29.394 USB, Beacon 29.352 USB
ISS 21 Sep 07:18:15 07:21:36 72° 22° (NNE) 07:24:55 145.800 FM
